Regional Weather Roundup
Issued by NWS

Home | Current Version | Previous Version | Text Only | Print | Product List | Glossary On
Versions: 1 2 3 4 5 6 7 8 9 10 11 12 13 14 15 16 17 18 19 20 21 22 23 24 25 26 27 28 29 30 31 32 33 34 35 36 37 38 39 40 41 42 43 44 45 46 47 48 49 50
000
ASUS43 KMKX 210811
RWRWI

WISCONSIN REGIONAL WEATHER ROUNDUP
NATIONAL WEATHER SERVICE MILWAUKEE/SULLIVAN WI
300 AM CDT THU AUG 21 2014

NOTE: "FAIR" INDICATES FEW OR NO CLOUDS BELOW 12,000 FEET WITH NO
SIGNIFICANT WEATHER AND/OR OBSTRUCTIONS TO VISIBILITY.

WIZ001-002-006>008-014>016-023>028-210900-
NORTHWEST WISCONSIN

CITY           SKY/WX    TMP DP  RH WIND       PRES   REMARKS
SUPERIOR ARPT  CLOUDY    61  61  99 E7        29.91F
ASHLAND        FOG       59  59 100 NE6       29.94S VSB 1/4
HAYWARD        PTCLDY    59  59 100 CALM      29.92S
SIREN          MOCLDY    64  61  91 SE5       29.88F
RICE LAKE      CLOUDY    64  61  89 E5        29.92S
LADYSMITH      PTCLDY    61  59  94 E3        29.94F
EAU CLAIRE     PTCLDY    66  63  90 E7        29.88F
MENOMONIE      SUNNY     65  63  92 E6        29.88F
NEW RICHMOND   PTCLDY    66  62  85 E7        29.86F
OSCEOLA        PTCLDY    67  63  86 E10       29.87F
$$

WIZ003>005-009-010-017-018-210900-
NORTH CENTRAL WISCONSIN

CITY           SKY/WX    TMP DP  RH WIND       PRES   REMARKS
WOODRUFF       MOCLDY    59  56  87 CALM      29.96F
RHINELANDER    CLOUDY    60  60 100 SE7       29.97F
EAGLE RIVER    CLOUDY    61  61  98 CALM      29.97F
LAND O LAKES   CLOUDY    61  61  98 CALM      29.98F
PHILLIPS       CLEAR     56  55  99 E3        29.94F
TOMAHAWK       FOG       51  50  97 CALM      29.96F VSB 1
MEDFORD        CLOUDY    61  60  97 SE3       29.95S
MERRILL        FOG       55  55 100 CALM      29.95F VSB 1
$$

WIZ029-030-035-036-043>047-210900-
CENTRAL WISCONSIN

CITY           SKY/WX    TMP DP  RH WIND       PRES   REMARKS
WAUSAU         MOCLDY    60  59  96 SE5       29.94F
MOSINEE        MOCLDY    59  59 100 CALM      29.96F
MARSHFIELD     MOCLDY    63  60  90 E6        29.93F
STEVENS POINT  MOCLDY    58  57  97 NE3       29.95F
WAUPACA        MOCLDY    63  61  94 CALM      29.94F
WAUTOMA        MOCLDY    64  64 100 CALM      29.94F
WISC RAPIDS    MOCLDY    64  62  93 E3        29.94F
CAMP DOUGLAS   MOCLDY    63  63 100 SE2       29.92F FOG
$$

WIZ011>013-019>022-031-037>040-048>050-210900-
NORTHEAST WISCONSIN

CITY           SKY/WX    TMP DP  RH WIND       PRES   REMARKS
ANTIGO         FOG       60  60 100 E6        29.97F VSB 3/4
STURGEON BAY   CLOUDY    63  61  94 S6        29.98S
GREEN BAY      MOCLDY    60  60 100 CALM      29.96F FOG
MANITOWOC      FOG       62  62 100 CALM      29.97S VSB 1/2
APPLETON       MOCLDY    64  63  94 E3        29.95F
CLINTONVILLE   MOCLDY    59  57  94 CALM      29.95F FOG
OSHKOSH        MOCLDY    63  61  93 S5        29.94F
$$

WIZ032>034-041-042-053>061-210900-
SOUTHWEST WISCONSIN

CITY           SKY/WX    TMP DP  RH WIND       PRES   REMARKS
LA CROSSE      CLOUDY    72  66  81 E6        29.89S
SPARTA         MOCLDY    67  64  91 CALM      29.91S
VIROQUA        CLOUDY    68  68 100 S8        29.93R
BOSCOBEL       TSTM      70  67  90 VRB3      29.90F FOG
PRAIRIE DU CHI CLOUDY    70  66  85 CALM      29.89S
PLATTEVILLE    CLOUDY    69  68  94 N9        29.93S
$$

WIZ056-057-062-063-064-067-068-210900-
SOUTH CENTRAL WISCONSIN

CITY           SKY/WX    TMP DP  RH WIND       PRES   REMARKS
BARABOO/DELLS  MOCLDY    65  63  91 CALM      29.92F FOG
LONE ROCK      CLOUDY    73  67  81 E5        29.91F
WATERTOWN      MOCLDY    65  64  97 E6        29.93F
MADISON        CLOUDY    67  65  93 E3        29.92F
MIDDLETON      CLOUDY    68  68 100 CALM      29.93S
MONROE         CLOUDY    70  66  88 S3        29.93F
JANESVILLE     MOCLDY    70  68  94 CALM      29.93S
$$

WIZ051-052-058>065-066-070>072-210900-
SOUTHEAST WISCONSIN

CITY           SKY/WX    TMP DP  RH WIND       PRES   REMARKS
MILWAUKEE      PTCLDY    66  62  87 NE5       29.94F
WAUKESHA       MOCLDY    63  61  94 E3        29.96F
MILWAUKEE/TIMM PTCLDY    66  61  82 CALM      29.95F
RACINE         PTCLDY    66  63  90 CALM      29.96F
BURLINGTON     PTCLDY    62  62  99 CALM      29.94F FOG
KENOSHA        MOCLDY    65  64  97 SE5       29.95S
FOND DU LAC    MOCLDY    65  61  87 SE8       29.95F
SHEBOYGAN      MOCLDY    62  60  93 NE3       29.96F FOG
WEST BEND      MOCLDY    61  59  94 CALM      29.95F FOG
JUNEAU         MOCLDY    65  38  37 E8        29.95F
$$

LSZ147-162-210900-
LAKE SUPERIOR

STATION/POSITION TIME  TEMP    WIND        PRES    WAVE
                       AIR SEA DIR/SP/G            HT/PER
                 (UTC) (F)     (DEG/KT/KT) (MB)    (FT/S)
W MID LAKE BUOY  0750   56 58  100/  6/  6 1014.4F   0
DEVILS ISLAND    0800   60     110/  7/  8 1013.5F
PORT WING        0740   59     100/  1/  4 1013.2F
SAXON HARBOR     0700   56        CALM     1013.9F
$$

LMZ867-665-643>646-210900-
LAKE MICHIGAN

STATION/POSITION TIME  TEMP    WIND        PRES    WAVE
                       AIR SEA DIR/SP/G            HT/PER
                 (UTC) (F)     (DEG/KT/KT) (MB)    (FT/S)
N MID LAKE BUOY  0750   63 62  230/  8/  8 1014.5R   0
NORTHPORT PIER   0700   64     190/  3/  5 1014.6S
SISTER BAY       0711   64     150/  1/  5   N/A
ALGOMA LAKESHORE 0723             CALM       N/A
KEWAUNEE LAKESHO 0700   61     250/  1/  2 1013.9S
SHEBOYGAN LAKESH 0800   66 67   50/  2/  2 1014.5F
ATWATER BUOY     0800   68      80/  4/  4 1015.0F
MILWAUKEE LAKESH 0700   68     110/  4/  4   N/A
S MID LAKE BUOY  0750   68 68   60/  6/  8 1013.9F   0
KENOSHA   LAKESH 0800   70     120/  4/  5 1013.5F
$$

TC  - TEMPERATURE IN CELSIUS
VSB - VISIBILITY IN STATUTE MILES
WCI - WIND CHILL INDEX
HX  - HEAT INDEX



USA.gov is the U.S. government's official web portal to all federal, state and local government web resources and services.